Regional Weather Roundup
Issued by NWS Sioux Falls, SD

Home | Current Version | Previous Version | Text Only | Print | Product List | Glossary Off
Versions: 1 2 3 4 5 6 7 8 9 10 11 12 13 14 15 16 17 18 19 20 21 22 23 24 25 26 27 28 29 30 31 32 33 34 35 36 37 38 39 40 41 42 43 44 45 46 47 48 49 50

000
ASUS43 KFSD 010002
RWRFSD

WEATHER ROUNDUP FOR SE SOUTH DAKOTA/SW MINNESOTA/NW IOWA
NATIONAL WEATHER SERVICE SIOUX FALLS SD
700 PM CDT THU JUL 31 2014

NOTE: "FAIR" INDICATES FEW OR NO CLOUDS BELOW 12,000 FEET WITH NO
SIGNIFICANT WEATHER AND OR OBSTRUCTIONS TO VISIBILITY.


SDZ038>040-050-052>070-010100-
SOUTHEAST SOUTH DAKOTA

CITY           SKY/WX    TMP DP  RH WIND       PRES   REMARKS
CHAMBERLAIN    SUNNY     82  57  41 E10       30.03S
6HR MIN TEMP:  80; 6HR MAX TEMP:  85;

HURON          SUNNY     81  52  36 N7        30.02F
6HR MIN TEMP:  79; 6HR MAX TEMP:  84;

MADISON        FAIR      75  55  50 N7        30.06S
MITCHELL       SUNNY     82  60  47 CALM      30.03F
6HR MIN TEMP:  76; 6HR MAX TEMP:  84;

SIOUX FALLS    MOSUNNY   72  62  71 W5        30.04F
6HR MIN TEMP:  70; 6HR MAX TEMP:  80; 6HR PCP: TRACE;

WINNER         FAIR      87  51  28 NE7       30.03F
YANKTON        SUNNY     75  59  57 E6        30.05S
$$

MNZ071-072-080-081-089-090-097-098-010100-
SOUTHWEST MINNESOTA

CITY           SKY/WX    TMP DP  RH WIND       PRES   REMARKS
FAIRMONT       MOSUNNY   79  55  44 NE5       30.03F
JACKSON        MOSUNNY   73  59  60 CALM      30.04F
LUVERNE        SUNNY     75  59  57 CALM      30.04F
MARSHALL       SUNNY     79  54  41 N5        30.02F
6HR MIN TEMP:  79; 6HR MAX TEMP:  81;

MONTEVIDEO     SUNNY     81  57  44 N7        30.02F
PIPESTONE      MOSUNNY   79  55  44 NE6       30.05S
REDWOOD FALLS  SUNNY     80  55  42 NW5       30.01F
TRACY          SUNNY     78  56  45 N3        30.04S
WINDOM         PTSUNNY   75  61  60 SW9       30.04S
WORTHINGTON    MOSUNNY   75  61  60 W9        30.06S
$$

IAZ001>003-012>014-020>022-031-032-NEZ013-014-SDZ071-010100-
NORTHWEST IOWA

CITY           SKY/WX    TMP DP  RH WIND       PRES   REMARKS
CHEROKEE       CLOUDY    73  59  61 SW6       30.05S
DENISON        CLOUDY    66  66 100 CALM      30.04F
ESTHERVILLE    TSTM      69  60  73 W13G18    30.04S
SIOUX CITY     PTSUNNY   73  62  68 E7        30.04S
6HR MIN TEMP:  71; 6HR MAX TEMP:  77; 6HR PCP: TRACE;

SPENCER        MOSUNNY   77  61  57 SW9       30.04S
6HR MIN TEMP:  76; 6HR MAX TEMP:  81; 6HR PCP:  0.01;

STORM LAKE     MOSUNNY   72  61  68 SW6       30.06F
$$

ABBREVIATIONS USED IN REMARKS
   TC - TEMPERATURE IN CELSIUS
  WCI - WIND CHILL INDEX
   HX - HEAT INDEX
  VSB - VISIBILITY



USA.gov is the U.S. government's official web portal to all federal, state and local government web resources and services.